UKV21MR LEPA-EGKK

Flight info

Callsign UKV21MR
Flight time 1h 59m
Altitude 36000
Route DRAGO DCT PAPOS DCT UMURE DCT XIKEN DCT KARES DCT ARBEK/N0450F380 DCT REBUL DCT USKAR DCT MOPAS DCT GIROM DCT GONUP DCT MANAK DCT TIRAV DCT DIXAD DCT NTS DCT BAKUL DCT REN DCT UPALO DCT REVTU DCT ODREP UP88 VASUX
Aircraft A320/M-SDE3FGHIRWY/LB1

Departure

Time 2026-05-04 19:39
Airport Palma de Mallorca Airport (LEPA)

Arrival

Time 2026-05-04 21:39
Airport London Gatwick Airport (EGKK)
Time Latitude Longitude Altitude Speed Heading
2026-05-04 19:11 39.55055 2.72798 38 ft 0 kts 145°
2026-05-04 19:31 39.55065 2.72789 37 ft 4 kts 145°
2026-05-04 19:31 39.55085 2.72771 38 ft 2 kts 146°
2026-05-04 19:31 39.55102 2.72751 35 ft 4 kts 104°
2026-05-04 19:32 39.55100 2.72720 37 ft 3 kts 60°
2026-05-04 19:32 39.55095 2.72711 36 ft 0 kts 58°
2026-05-04 19:34 39.55096 2.72713 37 ft 2 kts 58°
2026-05-04 19:34 39.55127 2.72777 37 ft 14 kts 59°
2026-05-04 19:35 39.55190 2.72917 36 ft 18 kts 60°
2026-05-04 19:35 39.55252 2.73054 38 ft 17 kts 59°
2026-05-04 19:35 39.55313 2.73176 38 ft 15 kts 56°
2026-05-04 19:35 39.55368 2.73286 38 ft 14 kts 57°
2026-05-04 19:36 39.55418 2.73388 36 ft 13 kts 57°
2026-05-04 19:36 39.55463 2.73480 38 ft 12 kts 58°
2026-05-04 19:36 39.55506 2.73562 38 ft 9 kts 39°
2026-05-04 19:36 39.55563 2.73546 38 ft 9 kts 332°
2026-05-04 19:37 39.55637 2.73508 38 ft 14 kts
2026-05-04 19:37 39.55709 2.73610 38 ft 16 kts 61°
2026-05-04 19:37 39.55762 2.73731 38 ft 15 kts 58°
2026-05-04 19:37 39.55813 2.73838 38 ft 13 kts 58°
2026-05-04 19:38 39.55873 2.73908 38 ft 11 kts 359°
2026-05-04 19:38 39.55937 2.73866 38 ft 10 kts 331°
2026-05-04 19:38 39.55990 2.73823 37 ft 8 kts 315°
2026-05-04 19:38 39.55989 2.73762 38 ft 7 kts 248°
2026-05-04 19:39 39.55923 2.73625 38 ft 45 kts 238°
2026-05-04 19:39 39.55638 2.73025 38 ft 110 kts 239°
2026-05-04 19:39 39.55141 2.71981 58 ft 158 kts 239°
2026-05-04 19:39 39.54584 2.70722 665 ft 159 kts 237°
2026-05-04 19:40 39.54005 2.69550 1568 ft 150 kts 235°
2026-05-04 19:40 39.53420 2.68430 2156 ft 160 kts 236°
2026-05-04 19:40 39.52762 2.67149 2491 ft 181 kts 236°
2026-05-04 19:40 39.52028 2.65714 2895 ft 197 kts 237°
2026-05-04 19:41 39.51520 2.64720 3287 ft 201 kts 237°
2026-05-04 19:41 39.50738 2.63192 4074 ft 204 kts 237°
2026-05-04 19:41 39.49687 2.61143 5102 ft 209 kts 237°
2026-05-04 19:41 39.48876 2.59559 5879 ft 212 kts 238°
2026-05-04 19:42 39.48334 2.58500 6417 ft 213 kts 238°
2026-05-04 19:42 39.47507 2.56882 7222 ft 213 kts 238°
2026-05-04 19:42 39.46694 2.55290 8004 ft 214 kts 238°
2026-05-04 19:42 39.45868 2.53674 8789 ft 216 kts 238°
2026-05-04 19:43 39.45099 2.51980 9463 ft 226 kts 251°
2026-05-04 19:43 39.45103 2.49860 9797 ft 255 kts 287°
2026-05-04 19:43 39.46186 2.47904 10196 ft 283 kts 311°
2026-05-04 19:43 39.47742 2.46202 10460 ft 310 kts 317°
2026-05-04 19:44 39.49550 2.44492 10721 ft 333 kts 320°
2026-05-04 19:44 39.51482 2.42741 11275 ft 342 kts 320°
2026-05-04 19:44 39.53442 2.40948 12004 ft 346 kts 319°
2026-05-04 19:44 39.55340 2.39021 12708 ft 346 kts 310°
2026-05-04 19:45 39.57037 2.36779 13458 ft 349 kts 309°
2026-05-04 19:45 39.58702 2.34524 14146 ft 352 kts 308°
2026-05-04 19:45 39.60392 2.32208 14805 ft 355 kts 308°
2026-05-04 19:45 39.62090 2.29868 15457 ft 358 kts 308°
2026-05-04 19:46 39.63806 2.27505 16125 ft 361 kts 307°
2026-05-04 19:46 39.65536 2.25132 16771 ft 363 kts 307°
2026-05-04 19:46 39.67285 2.22737 17408 ft 366 kts 307°
2026-05-04 19:46 39.69045 2.20329 18038 ft 369 kts 307°
2026-05-04 19:47 39.70821 2.17897 18601 ft 372 kts 307°
2026-05-04 19:47 39.72611 2.15447 19126 ft 375 kts 307°
2026-05-04 19:47 39.74410 2.12982 19638 ft 377 kts 307°
2026-05-04 19:47 39.76222 2.10498 20153 ft 380 kts 306°
2026-05-04 19:48 39.78027 2.08018 20653 ft 383 kts 306°
2026-05-04 19:48 39.79867 2.05484 21166 ft 386 kts 306°
2026-05-04 19:48 39.81723 2.02927 21636 ft 390 kts 306°
2026-05-04 19:48 39.83589 2.00353 22118 ft 392 kts 306°
2026-05-04 19:49 39.85468 1.97759 22591 ft 395 kts 306°
2026-05-04 19:49 39.87365 1.95134 23070 ft 398 kts 306°
2026-05-04 19:49 39.89247 1.92535 23520 ft 401 kts 306°
2026-05-04 19:49 39.91174 1.89876 23940 ft 403 kts 306°
2026-05-04 19:50 39.93103 1.87210 24332 ft 405 kts 306°
2026-05-04 19:50 39.95048 1.84518 24718 ft 407 kts 306°
2026-05-04 19:50 39.96976 1.81847 25094 ft 410 kts 306°
2026-05-04 19:50 39.98966 1.79158 25456 ft 415 kts 309°
2026-05-04 19:51 40.01269 1.76804 25811 ft 427 kts 320°
2026-05-04 19:51 40.03939 1.74947 26165 ft 440 kts 330°
2026-05-04 19:51 40.06817 1.73481 26504 ft 445 kts 332°
2026-05-04 19:51 40.09680 1.72030 26847 ft 447 kts 331°
2026-05-04 19:52 40.12587 1.70542 27205 ft 449 kts 331°
2026-05-04 19:52 40.15505 1.69039 27555 ft 451 kts 331°
2026-05-04 19:52 40.18435 1.67524 27901 ft 453 kts 331°
2026-05-04 19:52 40.21379 1.65998 28233 ft 455 kts 331°
2026-05-04 19:53 40.24304 1.64486 28570 ft 458 kts 331°
2026-05-04 19:53 40.27273 1.62955 28870 ft 460 kts 332°
2026-05-04 19:53 40.30270 1.61413 29176 ft 462 kts 332°
2026-05-04 19:53 40.33274 1.59866 29499 ft 464 kts 332°
2026-05-04 19:54 40.36277 1.58316 29788 ft 466 kts 332°
2026-05-04 19:54 40.39304 1.56751 30072 ft 468 kts 332°
2026-05-04 19:54 40.42341 1.55176 30332 ft 469 kts 332°
2026-05-04 19:54 40.45378 1.53600 30683 ft 468 kts 332°
2026-05-04 19:55 40.48408 1.52028 31080 ft 467 kts 332°
2026-05-04 19:55 40.51390 1.50483 31432 ft 466 kts 332°
2026-05-04 19:55 40.54408 1.48917 31782 ft 465 kts 332°
2026-05-04 19:55 40.57419 1.47351 32133 ft 464 kts 332°
2026-05-04 19:56 40.60429 1.45783 32486 ft 463 kts 332°
2026-05-04 19:56 40.63421 1.44221 32837 ft 462 kts 331°
2026-05-04 19:56 40.66377 1.42676 33181 ft 461 kts 331°
2026-05-04 19:56 40.69357 1.41118 33532 ft 461 kts 331°
2026-05-04 19:57 40.72338 1.39557 33887 ft 460 kts 331°
2026-05-04 19:57 40.75314 1.37998 34181 ft 459 kts 331°
2026-05-04 19:57 40.78287 1.36444 34468 ft 459 kts 331°
2026-05-04 19:57 40.81216 1.34914 34741 ft 458 kts 331°
2026-05-04 19:58 40.84176 1.33366 35038 ft 457 kts 331°
2026-05-04 19:58 40.87136 1.31815 35313 ft 456 kts 332°
2026-05-04 19:58 40.90093 1.30266 35593 ft 456 kts 332°
2026-05-04 19:58 40.93046 1.28711 35834 ft 456 kts 332°
2026-05-04 19:59 40.96008 1.27144 35954 ft 457 kts 332°
2026-05-04 19:59 41.01915 1.24019 35968 ft 457 kts 332°
2026-05-04 20:00 41.07815 1.20900 35975 ft 457 kts 332°
2026-05-04 20:00 41.13743 1.17874 35987 ft 461 kts 337°
2026-05-04 20:01 41.20169 1.16568 35981 ft 473 kts 350°
2026-05-04 20:01 41.26731 1.15913 35977 ft 473 kts 349°
2026-05-04 20:02 41.33322 1.15205 35965 ft 473 kts 349°
2026-05-04 20:02 41.39846 1.14493 36004 ft 473 kts 350°
2026-05-04 20:03 41.46452 1.13800 35987 ft 473 kts 350°
2026-05-04 20:03 41.53006 1.13115 35974 ft 473 kts 350°
2026-05-04 20:04 41.59554 1.12424 35980 ft 472 kts 350°
2026-05-04 20:04 41.66094 1.11733 35978 ft 472 kts 350°
2026-05-04 20:05 41.72645 1.11037 35982 ft 472 kts 350°
2026-05-04 20:05 41.79190 1.10345 36006 ft 472 kts 350°
2026-05-04 20:06 41.85737 1.09649 36003 ft 473 kts 350°
2026-05-04 20:06 41.92291 1.08946 36003 ft 473 kts 350°
2026-05-04 20:07 41.98841 1.08242 36015 ft 473 kts 350°
2026-05-04 20:07 42.05392 1.07539 36003 ft 473 kts 351°
2026-05-04 20:08 42.11986 1.06834 35989 ft 473 kts 351°
2026-05-04 20:08 42.18535 1.06130 35978 ft 473 kts 351°
2026-05-04 20:09 42.25093 1.05425 35969 ft 473 kts 351°
2026-05-04 20:09 42.31662 1.04716 35961 ft 473 kts 351°
2026-05-04 20:10 42.38212 1.04011 35960 ft 474 kts 351°
2026-05-04 20:10 42.44770 1.03298 35975 ft 474 kts 351°
2026-05-04 20:11 42.51390 1.02583 35973 ft 474 kts 351°
2026-05-04 20:11 42.57971 1.01870 35977 ft 474 kts 351°
2026-05-04 20:12 42.64546 1.01143 35996 ft 475 kts 351°
2026-05-04 20:12 42.71137 1.00412 36000 ft 475 kts 351°
2026-05-04 20:13 42.77697 0.99562 36000 ft 472 kts 345°
2026-05-04 20:13 42.84031 0.97472 36001 ft 469 kts 341°
2026-05-04 20:14 42.90355 0.95288 36003 ft 469 kts 341°
2026-05-04 20:14 42.96670 0.93113 36006 ft 469 kts 341°
2026-05-04 20:15 43.02985 0.90931 36032 ft 469 kts 341°
2026-05-04 20:15 43.09318 0.88730 36022 ft 470 kts 341°
2026-05-04 20:16 43.15649 0.86522 36020 ft 470 kts 341°
2026-05-04 20:16 43.22017 0.84304 36020 ft 470 kts 341°
2026-05-04 20:17 43.28352 0.82091 36016 ft 471 kts 341°
2026-05-04 20:17 43.34685 0.79879 36010 ft 471 kts 340°
2026-05-04 20:18 43.40751 0.76660 36005 ft 466 kts 332°
2026-05-04 20:18 43.46744 0.73198 36029 ft 467 kts 333°
2026-05-04 20:19 43.52742 0.69731 36010 ft 467 kts 333°
2026-05-04 20:19 43.58712 0.66268 36005 ft 468 kts 333°
2026-05-04 20:20 43.64715 0.62773 36011 ft 468 kts 333°
2026-05-04 20:20 43.70728 0.59257 36003 ft 469 kts 333°
2026-05-04 20:21 43.76713 0.55757 36000 ft 469 kts 333°
2026-05-04 20:21 43.85721 0.50490 36003 ft 470 kts 333°
2026-05-04 20:22 43.91739 0.46948 35992 ft 470 kts 333°
2026-05-04 20:22 43.97779 0.43383 35989 ft 470 kts 333°
2026-05-04 20:23 44.03813 0.39818 35999 ft 471 kts 333°
2026-05-04 20:23 44.09815 0.36271 36007 ft 471 kts 333°
2026-05-04 20:24 44.15871 0.32683 35991 ft 472 kts 333°
2026-05-04 20:24 44.21917 0.29086 35995 ft 472 kts 333°
2026-05-04 20:25 44.27921 0.25521 35991 ft 472 kts 333°
2026-05-04 20:25 44.33981 0.21895 35991 ft 472 kts 333°
2026-05-04 20:26 44.40030 0.18268 35989 ft 473 kts 333°
2026-05-04 20:26 44.46048 0.14662 35998 ft 473 kts 333°
2026-05-04 20:27 44.52118 0.11015 35992 ft 474 kts 333°
2026-05-04 20:27 44.58185 0.07355 35992 ft 474 kts 333°
2026-05-04 20:28 44.64261 0.03680 35988 ft 475 kts 333°
2026-05-04 20:28 44.70332 0.00010 35984 ft 475 kts 333°
2026-05-04 20:29 44.76378 -0.03645 36012 ft 475 kts 333°
2026-05-04 20:29 44.82452 -0.07341 36004 ft 474 kts 333°
2026-05-04 20:30 44.87495 -0.10417 35996 ft 474 kts 333°
2026-05-04 20:30 44.93530 -0.14094 35995 ft 474 kts 333°
2026-05-04 20:31 44.99605 -0.17810 36001 ft 474 kts 333°
2026-05-04 20:31 45.05676 -0.21528 35994 ft 475 kts 333°
2026-05-04 20:32 45.11704 -0.25226 35990 ft 475 kts 333°
2026-05-04 20:32 45.17759 -0.28974 35986 ft 475 kts 333°
2026-05-04 20:33 45.23831 -0.32724 35996 ft 475 kts 333°
2026-05-04 20:33 45.29906 -0.36485 35991 ft 476 kts 333°
2026-05-04 20:34 45.35981 -0.40261 35985 ft 476 kts 333°
2026-05-04 20:34 45.42013 -0.44016 35986 ft 476 kts 333°
2026-05-04 20:35 45.48106 -0.47816 35992 ft 476 kts 333°
2026-05-04 20:35 45.54154 -0.51596 35987 ft 477 kts 333°
2026-05-04 20:36 45.60245 -0.55401 35987 ft 477 kts 333°
2026-05-04 20:36 45.66330 -0.59227 35986 ft 477 kts 333°
2026-05-04 20:37 45.72365 -0.63042 35983 ft 477 kts 333°
2026-05-04 20:37 45.78463 -0.66893 35986 ft 477 kts 333°
2026-05-04 20:38 45.84544 -0.70732 35982 ft 478 kts 333°
2026-05-04 20:38 45.90602 -0.74569 35977 ft 478 kts 333°
2026-05-04 20:39 45.96694 -0.78440 35981 ft 478 kts 333°
2026-05-04 20:39 46.02784 -0.82318 35993 ft 478 kts 334°
2026-05-04 20:40 46.08836 -0.86179 35986 ft 478 kts 334°
2026-05-04 20:40 46.14927 -0.90076 35984 ft 477 kts 334°
2026-05-04 20:41 46.20900 -0.94127 36006 ft 475 kts 326°
2026-05-04 20:41 46.26178 -0.99786 36003 ft 471 kts 318°
2026-05-04 20:42 46.31304 -1.05733 35998 ft 472 kts 318°
2026-05-04 20:42 46.36440 -1.11693 36001 ft 472 kts 318°
2026-05-04 20:43 46.41525 -1.17614 35987 ft 472 kts 318°
2026-05-04 20:43 46.46655 -1.23596 36012 ft 472 kts 318°
2026-05-04 20:44 46.51747 -1.29544 36015 ft 472 kts 318°
2026-05-04 20:44 46.56866 -1.35536 36015 ft 472 kts 318°
2026-05-04 20:45 46.62339 -1.40823 36014 ft 475 kts 332°
2026-05-04 20:45 46.68303 -1.45035 36012 ft 476 kts 332°
2026-05-04 20:46 46.74218 -1.49228 36012 ft 476 kts 332°
2026-05-04 20:46 46.80171 -1.53471 36007 ft 476 kts 332°
2026-05-04 20:47 46.86229 -1.57386 35997 ft 478 kts 341°
2026-05-04 20:47 46.92796 -1.58940 35991 ft 480 kts 355°
2026-05-04 20:48 46.99426 -1.59593 35982 ft 480 kts 355°
2026-05-04 20:48 47.06096 -1.60275 35979 ft 480 kts 355°
2026-05-04 20:49 47.12760 -1.60973 35985 ft 480 kts 355°
2026-05-04 20:49 47.19388 -1.61686 35982 ft 479 kts 354°
2026-05-04 20:50 47.26036 -1.62576 35985 ft 479 kts 354°
2026-05-04 20:50 47.32688 -1.63543 35983 ft 479 kts 354°
2026-05-04 20:51 47.39333 -1.64483 35983 ft 479 kts 354°
2026-05-04 20:51 47.45926 -1.65411 35975 ft 479 kts 354°
2026-05-04 20:52 47.52571 -1.66346 35972 ft 479 kts 354°
2026-05-04 20:52 47.59211 -1.67297 35977 ft 479 kts 354°
2026-05-04 20:53 47.65853 -1.68246 35992 ft 478 kts 354°
2026-05-04 20:53 47.72431 -1.69189 35990 ft 477 kts 354°
2026-05-04 20:54 47.79060 -1.70144 35991 ft 477 kts 354°
2026-05-04 20:54 47.85662 -1.71101 35992 ft 476 kts 354°
2026-05-04 20:55 47.92238 -1.72049 35990 ft 476 kts 354°
2026-05-04 20:55 47.98835 -1.73004 35989 ft 476 kts 354°
2026-05-04 20:56 48.05394 -1.73965 35988 ft 475 kts 354°
2026-05-04 20:56 48.12014 -1.74246 35986 ft 475 kts 359°
2026-05-04 20:57 48.18633 -1.74321 35985 ft 475 kts 359°
2026-05-04 20:57 48.25243 -1.74399 35984 ft 475 kts 360°
2026-05-04 20:58 48.31822 -1.74477 35991 ft 474 kts 359°
2026-05-04 20:58 48.38436 -1.74560 35994 ft 474 kts 359°
2026-05-04 20:59 48.45049 -1.74642 35997 ft 474 kts 360°
2026-05-04 20:59 48.51613 -1.74726 36000 ft 474 kts 360°
2026-05-04 21:00 48.58209 -1.74813 36002 ft 474 kts 360°
2026-05-04 21:00 48.64817 -1.74893 36002 ft 474 kts 360°
2026-05-04 21:01 48.71369 -1.74975 36004 ft 473 kts 360°
2026-05-04 21:01 48.77963 -1.75046 36006 ft 473 kts 360°
2026-05-04 21:02 48.84555 -1.75122 36008 ft 473 kts 360°
2026-05-04 21:02 48.91152 -1.75198 35990 ft 474 kts 360°
2026-05-04 21:03 48.97717 -1.75073 35983 ft 475 kts
2026-05-04 21:03 49.04327 -1.74746 35982 ft 476 kts
2026-05-04 21:04 49.10960 -1.74438 35988 ft 476 kts
2026-05-04 21:04 49.17600 -1.74191 35996 ft 476 kts
2026-05-04 21:05 49.24195 -1.73950 36001 ft 476 kts
2026-05-04 21:05 49.30830 -1.73688 36006 ft 476 kts
2026-05-04 21:06 49.37461 -1.73442 36020 ft 476 kts
2026-05-04 21:06 49.44088 -1.73194 36028 ft 476 kts
2026-05-04 21:07 49.50672 -1.72930 36030 ft 476 kts
2026-05-04 21:07 49.57302 -1.72616 35984 ft 475 kts
2026-05-04 21:08 49.60575 -1.71860 35736 ft 474 kts 14°
2026-05-04 21:08 49.63728 -1.70373 35491 ft 473 kts 21°
2026-05-04 21:08 49.66832 -1.68655 35247 ft 475 kts 21°
2026-05-04 21:08 49.69913 -1.66949 35011 ft 476 kts 21°
2026-05-04 21:09 49.73040 -1.65220 34769 ft 477 kts 21°
2026-05-04 21:09 49.76168 -1.63492 34528 ft 478 kts 20°
2026-05-04 21:09 49.79305 -1.61754 34295 ft 478 kts 21°
2026-05-04 21:09 49.82445 -1.60006 34061 ft 479 kts 21°
2026-05-04 21:10 49.85587 -1.58254 33789 ft 480 kts 21°
2026-05-04 21:10 49.88742 -1.56496 33508 ft 482 kts 21°
2026-05-04 21:10 49.91899 -1.54740 33183 ft 482 kts 21°
2026-05-04 21:10 49.95077 -1.52973 32012 ft 490 kts 21°
2026-05-04 21:11 49.98313 -1.51171 30955 ft 495 kts 21°
2026-05-04 21:11 50.01535 -1.49396 30124 ft 496 kts 20°
2026-05-04 21:11 50.04797 -1.47715 29417 ft 490 kts 19°
2026-05-04 21:11 50.08046 -1.46139 28724 ft 484 kts 18°
2026-05-04 21:12 50.11259 -1.44625 28041 ft 479 kts 18°
2026-05-04 21:12 50.14390 -1.43158 27378 ft 473 kts 18°
2026-05-04 21:12 50.17530 -1.41668 26716 ft 468 kts 18°
2026-05-04 21:12 50.20629 -1.40173 26053 ft 462 kts 18°
2026-05-04 21:13 50.23687 -1.38675 25417 ft 457 kts 18°
2026-05-04 21:13 50.26705 -1.37184 24769 ft 452 kts 18°
2026-05-04 21:13 50.29662 -1.35716 24170 ft 447 kts 18°
2026-05-04 21:13 50.32616 -1.34248 23560 ft 442 kts 18°
2026-05-04 21:14 50.35534 -1.32802 22943 ft 436 kts 19°
2026-05-04 21:14 50.38409 -1.31381 22396 ft 429 kts 19°
2026-05-04 21:14 50.41240 -1.29981 21889 ft 421 kts 19°
2026-05-04 21:14 50.44007 -1.28609 21386 ft 414 kts 19°
2026-05-04 21:15 50.46706 -1.27263 20899 ft 408 kts 19°
2026-05-04 21:15 50.49337 -1.25715 20416 ft 400 kts 27°
2026-05-04 21:15 50.51714 -1.23509 19924 ft 393 kts 38°
2026-05-04 21:15 50.53824 -1.20820 19436 ft 387 kts 42°
2026-05-04 21:16 50.55877 -1.18115 18941 ft 383 kts 41°
2026-05-04 21:16 50.57911 -1.15437 18441 ft 380 kts 42°
2026-05-04 21:16 50.59937 -1.12767 17891 ft 377 kts 41°
2026-05-04 21:16 50.61942 -1.10123 17377 ft 373 kts 41°
2026-05-04 21:17 50.63923 -1.07511 16874 ft 369 kts 41°
2026-05-04 21:17 50.65822 -1.04899 16373 ft 365 kts 46°
2026-05-04 21:17 50.67476 -1.01890 15881 ft 361 kts 51°
2026-05-04 21:17 50.69067 -0.98823 15385 ft 359 kts 51°
2026-05-04 21:18 50.70110 -0.96808 15051 ft 357 kts 51°
2026-05-04 21:18 50.71682 -0.93779 14561 ft 355 kts 51°
2026-05-04 21:18 50.73245 -0.90765 14069 ft 353 kts 51°
2026-05-04 21:18 50.75294 -0.86805 13493 ft 347 kts 51°
2026-05-04 21:19 50.76312 -0.84829 13401 ft 338 kts 51°
2026-05-04 21:19 50.77755 -0.82034 13267 ft 326 kts 51°
2026-05-04 21:19 50.79163 -0.79305 13133 ft 314 kts 51°
2026-05-04 21:19 50.80445 -0.76583 12992 ft 303 kts 60°
2026-05-04 21:20 50.81292 -0.73571 12747 ft 297 kts 74°
2026-05-04 21:20 50.81714 -0.70388 12400 ft 295 kts 80°
2026-05-04 21:20 50.82075 -0.67205 12036 ft 294 kts 80°
2026-05-04 21:20 50.82438 -0.64064 11671 ft 293 kts 80°
2026-05-04 21:21 50.82808 -0.60891 11302 ft 292 kts 80°
2026-05-04 21:21 50.83179 -0.57732 10930 ft 291 kts 80°
2026-05-04 21:21 50.83546 -0.54583 10562 ft 290 kts 80°
2026-05-04 21:21 50.83907 -0.51485 10203 ft 289 kts 80°
2026-05-04 21:22 50.84271 -0.48345 9821 ft 289 kts 80°
2026-05-04 21:22 50.84631 -0.45229 9437 ft 287 kts 80°
2026-05-04 21:22 50.84985 -0.42136 9073 ft 285 kts 80°
2026-05-04 21:22 50.85337 -0.39063 8713 ft 282 kts 80°
2026-05-04 21:23 50.85685 -0.36004 8360 ft 280 kts 80°
2026-05-04 21:23 50.86029 -0.32976 8003 ft 279 kts 80°
2026-05-04 21:23 50.86371 -0.29967 7651 ft 276 kts 79°
2026-05-04 21:23 50.86711 -0.26978 7301 ft 275 kts 79°
2026-05-04 21:24 50.87043 -0.24045 7054 ft 271 kts 79°
2026-05-04 21:24 50.87376 -0.21103 7030 ft 272 kts 79°
2026-05-04 21:24 50.87708 -0.18150 7027 ft 271 kts 79°
2026-05-04 21:24 50.88028 -0.15289 7023 ft 255 kts 79°
2026-05-04 21:25 50.88327 -0.12600 7026 ft 243 kts 79°
2026-05-04 21:25 50.88617 -0.09973 7033 ft 244 kts 80°
2026-05-04 21:25 50.88911 -0.07199 7036 ft 268 kts 80°
2026-05-04 21:25 50.89218 -0.04249 7036 ft 273 kts 80°
2026-05-04 21:26 50.89727 -0.01367 7038 ft 272 kts 61°
2026-05-04 21:26 50.90979 0.00861 7038 ft 273 kts 33°
2026-05-04 21:26 50.92739 0.01914 6944 ft 272 kts
2026-05-04 21:26 50.94597 0.02114 6746 ft 262 kts
2026-05-04 21:27 50.96394 0.02059 6559 ft 252 kts 349°
2026-05-04 21:27 50.97968 0.01104 6431 ft 242 kts 327°
2026-05-04 21:27 50.99157 -0.00729 6157 ft 238 kts 303°
2026-05-04 21:27 50.99778 -0.03152 5787 ft 239 kts 280°
2026-05-04 21:28 50.99762 -0.05812 5258 ft 247 kts 262°
2026-05-04 21:28 50.99599 -0.08571 4795 ft 249 kts 276°
2026-05-04 21:28 50.99842 -0.11234 4734 ft 241 kts 280°
2026-05-04 21:28 51.00082 -0.13829 4689 ft 239 kts 279°
2026-05-04 21:29 51.00321 -0.16455 4631 ft 241 kts 279°
2026-05-04 21:29 51.00561 -0.19089 4580 ft 238 kts 279°
2026-05-04 21:29 51.00795 -0.21631 4519 ft 226 kts 279°
2026-05-04 21:29 51.01016 -0.24050 4454 ft 216 kts 280°
2026-05-04 21:30 51.01225 -0.26351 4398 ft 206 kts 278°
2026-05-04 21:30 51.01273 -0.28570 4344 ft 196 kts 268°
2026-05-04 21:30 51.01141 -0.30688 4291 ft 190 kts 263°
2026-05-04 21:30 51.00954 -0.32763 4228 ft 190 kts 262°
2026-05-04 21:31 51.00556 -0.36865 3928 ft 188 kts 262°
2026-05-04 21:31 51.00360 -0.38925 3784 ft 188 kts 262°
2026-05-04 21:31 51.00343 -0.40991 3626 ft 186 kts 281°
2026-05-04 21:32 51.00602 -0.42971 3481 ft 186 kts 285°
2026-05-04 21:32 51.01063 -0.44928 3333 ft 191 kts 302°
2026-05-04 21:32 51.01997 -0.46389 3181 ft 189 kts 332°
2026-05-04 21:32 51.03201 -0.47143 3082 ft 185 kts 354°
2026-05-04 21:33 51.04466 -0.47459 3015 ft 180 kts 352°
2026-05-04 21:33 51.05654 -0.47834 3021 ft 170 kts 351°
2026-05-04 21:33 51.06806 -0.48213 3011 ft 167 kts 351°
2026-05-04 21:33 51.07936 -0.48210 2994 ft 161 kts 24°
2026-05-04 21:34 51.08916 -0.47417 3007 ft 160 kts 30°
2026-05-04 21:34 51.09896 -0.46570 3010 ft 160 kts 30°
2026-05-04 21:34 51.10796 -0.45549 3007 ft 159 kts 50°
2026-05-04 21:34 51.11326 -0.44026 3013 ft 159 kts 75°
2026-05-04 21:35 51.11573 -0.42301 2911 ft 159 kts 77°
2026-05-04 21:35 51.11813 -0.40582 2738 ft 158 kts 77°
2026-05-04 21:35 51.12049 -0.38898 2542 ft 158 kts 77°
2026-05-04 21:35 51.12287 -0.37197 2331 ft 156 kts 77°
2026-05-04 21:36 51.12522 -0.35518 2130 ft 155 kts 77°
2026-05-04 21:36 51.12756 -0.33846 1910 ft 153 kts 77°
2026-05-04 21:36 51.12986 -0.32194 1714 ft 152 kts 77°
2026-05-04 21:36 51.13214 -0.30562 1487 ft 148 kts 76°
2026-05-04 21:37 51.13425 -0.29044 1300 ft 135 kts 77°
2026-05-04 21:37 51.13621 -0.27636 1114 ft 131 kts 77°
2026-05-04 21:37 51.13816 -0.26233 939 ft 129 kts 77°
2026-05-04 21:37 51.14017 -0.24809 789 ft 134 kts 77°
2026-05-04 21:38 51.14234 -0.23366 609 ft 134 kts 79°
2026-05-04 21:38 51.14419 -0.21914 421 ft 132 kts 77°
2026-05-04 21:38 51.14615 -0.20503 239 ft 132 kts 79°
2026-05-04 21:38 51.14790 -0.19220 211 ft 98 kts 78°
2026-05-04 21:39 51.14898 -0.18426 209 ft 50 kts 77°
2026-05-04 21:39 51.14969 -0.17999 210 ft 35 kts 65°
2026-05-04 21:39 51.15088 -0.17762 215 ft 21 kts 16°
2026-05-04 21:39 51.15156 -0.17778 209 ft 9 kts 352°
2026-05-04 21:40 51.15212 -0.17788 205 ft 8 kts 354°
2026-05-04 21:40 51.15255 -0.17768 214 ft 6 kts 49°
2026-05-04 21:40 51.15267 -0.17711 208 ft 6 kts 75°
2026-05-04 21:40 51.15284 -0.17601 205 ft 14 kts 77°
2026-05-04 21:41 51.15310 -0.17416 211 ft 18 kts 69°
2026-05-04 21:41 51.15414 -0.17402 210 ft 17 kts 348°
2026-05-04 21:41 51.15537 -0.17440 205 ft 19 kts 349°
2026-05-04 21:41 51.15675 -0.17478 209 ft 21 kts 352°
2026-05-04 21:42 51.15756 -0.17569 209 ft 9 kts 268°
2026-05-04 21:42 51.15728 -0.17633 209 ft 7 kts 177°
2026-05-04 21:42 51.15676 -0.17616 207 ft 8 kts 166°
2026-05-04 21:42 51.15661 -0.17610 214 ft 0 kts 167°